Wetbulb
78.34 78.20 78.42 78.31 78.73 78.16 78.50 77.47 76.84 77.24 75.56 75.29 74.81 73.18 72.42 71.89 72.67 70.89 69.51 69.80 68.74 70.12 69.78 69.81 69.13 70.64 68.03 67.96 68.13 67.64 66.19 65.30 62.49 63.12 64.28 66.40 66.48 66.68 66.42 67.69 68.38 67.05 66.63
78.18 77.78 77.97 78.58 78.44 78.35 77.44 78.58 78.05 76.73 77.24 75.54 74.50 73.01 71.89 71.19 71.48 69.83 68.49 68.62 68.61 68.29 69.05 68.74 68.51 68.18 68.85 69.45 68.59 67.68 67.38 65.87 64.67 62.93 65.01 65.35 66.20 67.96 67.96 67.60 67.09 66.11 65.44
77.51 77.13 77.46 77.25 77.64 77.54 78.24 77.49 78.55 77.37 75.82 73.89 74.44 72.75 71.17 70.95 70.10 69.32 69.05 68.73 67.40 68.47 68.52 68.47 67.48 68.33 68.47 68.46 68.41 67.40 66.87 66.37 66.27 63.70 62.62 63.96 65.04 64.59 63.22 65.17 65.35 66.31 66.32
76.83 76.64 76.39 76.64 76.89 77.00 77.67 78.19 78.00 77.94 76.22 75.09 73.88 72.95 71.26 71.05 69.96 69.24 68.81 69.05 69.13 69.17 69.69 69.32 69.17 68.88 68.83 69.08 68.18 68.20 67.52 66.51 65.20 63.82 62.69 62.35 63.89 63.85 63.75 62.08 61.25 63.70 63.30
75.01 75.55 75.87 76.95 77.19 77.50 77.36 77.90 77.95 78.08 76.99 76.06 73.60 73.34 71.82 70.79 70.01 69.20 69.20 69.20 69.21 68.65 68.89 69.20 68.98 69.69 68.86 68.37 67.89 67.80 67.32 64.62 63.48 61.81 61.11 61.64 61.07 61.82 60.56 61.36 60.54 61.15 61.91
73.69 74.58 75.63 76.18 77.08 76.80 77.59 77.20 78.04 77.81 77.36 76.09 74.13 72.77 71.70 70.65 64.63 65.22 68.59 69.05 69.49 68.94 67.66 69.22 68.76 68.97 67.86 66.34 65.13 63.94 63.65 62.69 62.38 61.03 60.19 60.53 61.07 61.75 62.00 61.16 60.15 58.67 56.58
74.51 74.93 75.10 75.89 76.33 76.78 77.01 77.40 77.15 77.19 77.30 75.71 73.78 72.59 72.02 70.91 62.23 62.64 65.04 69.31 69.10 69.26 68.02 68.54 65.87 67.39 67.04 66.97 64.44 63.29 63.13 62.53 62.01 60.05 60.15 60.91 61.55 62.40 62.20 60.61 59.87 59.17 57.39
74.87 75.58 75.97 76.33 76.61 77.04 76.90 76.82 77.34 77.51 76.88 75.83 73.55 71.79 70.84 70.29 62.02 61.40 63.52 67.96 68.56 68.67 66.45 65.32 66.13 66.66 66.09 64.93 65.87 65.72 64.82 64.58 62.93 63.08 61.62 61.57 63.43 64.09 63.19 60.99 59.43 58.20 58.20
76.01 77.02 77.33 78.72 77.81 77.60 77.24 77.46 77.63 77.58 76.79 73.45 71.61 70.19 69.39 69.05 60.75 59.79 61.87 65.43 65.54 66.30 65.80 63.87 66.36 65.37 64.67 62.15 64.04 63.56 62.25 63.21 64.11 61.19 62.03 60.65 59.42 58.16 58.74 59.26 57.00 55.38 54.38
76.30 77.54 78.84 79.80 79.74 78.76 78.84 78.17 78.37 76.28 73.85 71.69 70.38 69.88 65.97 67.21 58.82 57.97 59.76 64.25 63.63 65.78 68.08 66.99 62.47 65.38 61.09 58.29 62.31 63.21 62.40 62.52 63.67 63.55 63.43 61.06 59.23 60.19 58.85 58.90 58.40 55.90 55.20
78.09 79.30 79.17 79.80 79.45 79.71 79.24 77.58 74.15 72.69 72.07 70.51 68.87 67.71 67.04 66.70 66.57 56.55 56.56 65.97 65.57 65.68 65.49 65.71 64.93 59.20 55.70 54.58 56.79 63.63 62.00 60.12 61.06 62.07 61.74 59.93 59.78 60.71 60.76 60.77 60.58 58.68 56.96
79.01 78.48 78.62 79.09 77.92 78.11 77.19 75.22 72.86 71.89 70.21 68.60 68.30 67.51 67.38 68.12 61.06 55.50 55.34 57.45 62.93 64.55 64.58 65.78 66.72 56.58 52.79 53.38 55.22 57.23 54.50 55.17 58.71 58.37 58.11 57.71 58.14 58.48 58.32 58.85 59.29 58.84 57.93
77.33 77.45 77.86 78.05 77.10 75.16 73.50 72.09 71.02 70.07 68.18 66.98 65.60 65.85 67.27 70.76 69.80 56.84 54.08 54.68 55.78 61.90 65.48 57.60 55.53 54.37 54.31 53.18 53.66 54.69 54.80 57.64 57.34 57.14 57.20 57.21 56.86 57.80 59.17 57.81 59.03 59.94 60.17
77.27 76.73 74.92 73.99 72.78 72.67 71.82 71.16 69.18 67.91 67.05 67.24 67.09 67.97 68.66 69.20 67.94 64.36 62.47 59.63 56.04 59.28 57.02 58.78 57.23 57.38 56.62 58.14 57.54 54.29 56.12 57.67 58.53 59.06 57.87 57.73 58.36 56.44 55.07 55.65 53.73 52.91 50.94
74.37 72.92 71.12 70.05 70.31 64.80 58.90 61.29 68.32 63.23 65.52 67.70 67.23 66.96 67.14 66.96 66.07 63.76 63.14 64.74 63.76 60.13 61.36 63.67 61.08 59.02 59.12 58.30 59.14 59.77 57.59 58.59 58.25 58.33 58.07 56.70 54.74 54.49 53.69 54.26 52.64 50.77 50.00
70.72 70.05 69.40 67.90 67.20 66.37 63.84 59.75 46.44 47.72 45.30 46.31 48.73 63.75 59.83 53.40 46.89 45.96 45.80 47.57 49.35 54.16 61.36 63.98 61.98 61.07 59.29 59.56 59.43 59.33 58.66 57.28 56.79 57.06 57.44 55.37 53.72 53.11 52.17 52.01 51.59 51.79 50.03
70.18 70.25 68.84 66.71 67.45 66.73 66.38 64.35 60.45 52.72 44.91 43.72 45.09 48.50 52.19 47.97 43.86 43.25 42.91 43.75 46.68 51.51 62.71 62.60 61.38 60.50 59.92 58.52 58.10 57.39 56.16 57.21 57.76 57.27 56.22 55.12 53.42 52.50 51.02 50.98 50.58 50.79 50.08
73.11 64.93 69.94 69.41 68.80 68.46 67.66 67.14 65.85 62.47 61.31 58.76 46.54 49.10 42.79 42.24 41.60 41.62 42.53 47.85 55.49 54.11 59.83 59.15 59.54 61.60 60.71 60.87 58.66 58.02 57.53 57.39 56.46 55.21 53.00 51.95 51.76 52.09 50.64 50.02 50.24 49.58 49.12
69.74 67.11 69.34 68.52 67.85 67.11 67.71 66.88 65.77 64.52 63.96 60.24 55.04 49.95 44.49 41.94 42.32 43.25 44.22 58.75 60.00 59.97 57.50 56.95 60.27 59.51 58.97 58.51 58.16 57.71 56.51 55.48 53.17 52.48 51.52 51.56 52.45 50.62 50.15 49.93 49.48 47.43 47.89
66.16 63.08 65.84 67.67 66.00 66.94 66.51 66.15 65.25 65.21 63.02 60.06 59.83 57.74 54.62 52.76 55.16 56.20 56.84 58.58 59.09 59.77 59.71 59.40 58.81 58.56 58.26 57.68 57.50 56.74 55.41 54.25 53.29 53.25 52.56 51.93 51.58 51.42 49.15 49.21 48.88 48.24 48.89
67.49 67.33 61.53 66.57 65.56 65.23 65.19 64.95 64.71 64.13 63.62 61.82 61.48 58.87 51.35 58.23 58.65 59.01 59.25 59.28 59.99 60.80 60.33 59.40 58.97 58.42 58.04 57.09 56.42 54.40 52.66 51.83 51.84 52.11 51.32 50.65 50.96 49.51 50.34 49.86 48.87 48.95 48.91
66.42 65.99 65.04 65.05 65.51 66.45 66.05 65.88 64.73 64.16 61.81 60.66 61.37 55.89 46.71 59.23 60.89 61.20 58.40 58.37 59.68 58.70 60.13 59.95 58.06 56.84 56.61 54.82 53.48 52.39 51.17 50.23 51.71 51.18 50.25 49.75 49.84 49.50 49.95 48.70 49.24 48.94 48.93
64.17 63.17 61.09 64.16 60.47 60.93 60.60 63.99 64.23 61.40 58.34 61.86 61.10 57.29 56.19 59.90 61.51 60.19 59.62 59.58 57.98 57.20 57.54 58.78 57.71 56.31 56.25 54.15 53.00 51.53 49.62 50.25 50.52 50.38 49.47 49.57 48.80 49.66 49.17 49.06 48.71 48.00 47.82
64.49 61.75 61.24 63.11 63.68 62.84 63.86 63.36 58.82 56.49 61.21 61.15 60.30 60.12 59.85 60.80 60.82 58.35 58.65 58.44 57.62 56.95 56.46 58.86 57.47 55.59 54.60 53.46 52.92 51.03 49.56 49.72 49.11 47.87 47.90 47.37 47.98 48.76 49.04 49.12 48.72 48.09 48.13
62.98 61.18 63.00 62.97 61.61 60.65 61.46 58.87 60.70 61.27 61.03 61.04 60.91 61.00 60.57 60.02 58.92 58.35 58.90 58.50 57.03 57.59 56.88 56.32 56.66 56.45 54.83 53.56 50.64 44.64 35.08 35.83 42.43 36.66 46.03 47.38 47.23 48.88 49.77 47.31 48.29 47.57 48.72
61.64 60.66 61.12 60.82 58.99 58.46 59.69 61.00 60.76 59.77 57.67 60.03 60.57 60.62 60.39 60.12 58.21 58.25 57.34 56.84 57.36 56.64 57.08 56.91 56.23 56.15 54.88 52.57 47.76 36.29 30.72 34.10 39.07 33.97 40.82 44.12 45.64 48.63 48.23 47.34 48.51 47.13 47.99
MSLP
1005.86 1006.61 1007.29 1007.89 1008.47 1009.06 1009.52 1009.97 1010.33 1010.84 1011.15 1012.00 1012.47 1013.03 1013.68 1014.10 1014.38 1014.58 1014.57 1014.66 1014.66 1015.01 1015.46 1016.56 1016.93 1017.11 1017.25 1017.15 1017.15 1017.27 1017.37 1017.40 1017.56 1017.28 1017.02 1016.94 1016.84 1016.87 1016.76 1016.64 1016.50 1016.57 1016.49
1004.79 1005.67 1006.36 1007.01 1007.60 1008.18 1008.81 1009.14 1009.55 1010.13 1010.68 1011.21 1011.94 1012.47 1012.92 1013.36 1013.69 1014.04 1014.52 1014.57 1014.65 1014.42 1015.13 1015.60 1016.24 1016.63 1016.90 1016.95 1016.91 1016.96 1017.00 1017.09 1017.28 1017.32 1017.09 1017.04 1016.72 1016.54 1016.42 1016.38 1016.09 1015.83 1015.71
1003.82 1004.66 1005.38 1006.02 1006.66 1007.09 1007.71 1008.35 1008.82 1009.46 1010.06 1010.61 1011.24 1011.76 1012.21 1012.66 1013.35 1013.91 1014.38 1014.58 1014.45 1014.23 1014.44 1015.17 1015.81 1016.25 1016.41 1016.49 1016.62 1016.83 1016.89 1016.89 1016.93 1017.07 1016.94 1016.53 1016.28 1016.04 1015.99 1015.88 1015.71 1015.50 1015.32
1002.66 1003.51 1004.19 1004.87 1005.32 1006.01 1006.69 1007.41 1007.98 1008.54 1009.19 1009.73 1010.28 1010.84 1011.32 1012.00 1012.65 1013.20 1013.83 1014.28 1014.25 1014.22 1014.03 1014.53 1015.29 1015.65 1015.90 1015.99 1016.23 1016.39 1016.48 1016.73 1016.82 1016.80 1016.56 1016.25 1016.01 1015.55 1015.64 1015.85 1015.54 1015.26 1015.05
1001.32 1002.23 1002.85 1003.61 1004.41 1005.14 1005.82 1006.40 1007.18 1007.68 1008.33 1008.94 1009.63 1010.40 1011.26 1011.76 1012.21 1012.77 1013.29 1013.70 1013.91 1014.03 1013.94 1013.77 1014.26 1014.89 1015.22 1015.56 1015.74 1016.01 1016.25 1016.61 1016.75 1016.77 1016.68 1016.39 1016.10 1015.96 1016.07 1015.86 1015.49 1015.18 1014.82
1000.12 1000.98 1001.84 1002.83 1003.65 1004.31 1005.01 1005.70 1006.28 1006.81 1007.57 1008.48 1009.12 1009.82 1010.26 1011.08 1011.96 1012.55 1013.09 1013.40 1013.63 1013.71 1013.81 1013.96 1013.60 1014.39 1014.79 1015.09 1015.20 1015.63 1016.17 1016.50 1016.64 1016.72 1016.36 1016.22 1016.03 1015.93 1015.91 1015.85 1015.71 1015.45 1014.90
999.04 999.94 1000.82 1001.67 1002.51 1003.31 1004.19 1004.93 1005.57 1006.19 1006.96 1007.83 1008.62 1009.46 1010.27 1011.24 1011.84 1012.38 1012.96 1013.20 1013.31 1013.48 1013.55 1013.73 1013.70 1014.00 1014.51 1014.78 1015.04 1015.42 1015.63 1015.54 1015.56 1015.83 1015.88 1015.64 1015.62 1015.61 1015.65 1015.55 1015.51 1015.43 1014.99
998.09 998.94 999.81 1000.65 1001.57 1002.59 1003.51 1004.20 1004.89 1005.56 1006.32 1007.27 1008.19 1009.04 1009.73 1010.70 1011.10 1012.00 1012.63 1012.94 1012.97 1012.99 1013.22 1013.39 1014.04 1013.90 1014.22 1014.72 1014.79 1015.02 1014.94 1014.70 1015.01 1015.07 1015.26 1014.98 1014.73 1014.78 1014.96 1014.92 1014.87 1014.75 1014.29
997.20 998.01 998.83 999.69 1000.75 1001.83 1002.79 1003.59 1004.36 1005.15 1006.02 1006.94 1007.79 1008.66 1009.58 1010.39 1011.14 1011.73 1012.25 1012.72 1012.85 1012.88 1012.97 1013.17 1013.36 1013.73 1013.88 1014.03 1014.32 1014.48 1014.45 1014.40 1013.99 1014.12 1014.03 1013.96 1014.08 1014.16 1014.12 1014.41 1014.33 1014.24 1013.69
996.22 997.12 998.14 999.09 1000.14 1001.26 1002.32 1003.30 1004.13 1005.04 1006.02 1006.92 1007.74 1008.42 1009.16 1009.90 1010.84 1011.40 1011.87 1012.26 1012.36 1012.43 1012.53 1012.73 1012.96 1013.27 1013.50 1013.69 1013.96 1014.18 1014.23 1014.01 1013.95 1013.86 1013.93 1013.94 1013.89 1013.72 1013.56 1013.65 1013.45 1013.78 1013.44
996.18 997.07 998.04 999.03 1000.04 1001.03 1002.14 1003.24 1004.24 1005.27 1006.22 1007.10 1007.86 1008.46 1009.04 1009.68 1010.20 1010.83 1011.27 1011.66 1011.59 1011.89 1012.14 1012.35 1012.58 1012.79 1013.22 1013.55 1013.77 1014.02 1013.94 1013.98 1014.00 1013.83 1013.60 1013.40 1013.08 1012.84 1012.65 1012.37 1012.78 1013.21 1012.96
996.51 997.54 998.46 999.41 1000.32 1001.26 1002.33 1003.60 1004.52 1005.49 1006.37 1007.26 1007.91 1008.52 1008.92 1009.26 1009.76 1010.42 1010.78 1011.08 1011.22 1011.52 1011.58 1011.64 1011.87 1012.19 1012.66 1013.31 1013.83 1013.91 1013.80 1013.92 1013.89 1013.63 1013.35 1012.95 1012.55 1012.49 1012.22 1012.24 1012.08 1011.95 1011.78
996.90 997.95 998.94 999.99 1000.86 1001.77 1002.87 1003.74 1004.99 1005.78 1006.46 1007.21 1007.84 1008.33 1008.60 1008.72 1009.40 1009.99 1010.37 1010.89 1011.11 1011.67 1011.56 1011.83 1011.88 1012.30 1012.84 1013.20 1013.50 1013.45 1013.55 1013.64 1013.58 1013.34 1013.00 1012.70 1012.49 1012.10 1012.01 1011.92 1011.59 1011.30 1011.21
997.22 998.46 999.67 1000.43 1001.51 1002.61 1003.47 1004.72 1005.43 1006.03 1006.53 1007.03 1007.38 1007.63 1008.16 1008.63 1009.18 1009.88 1010.27 1010.78 1011.14 1011.37 1011.78 1011.78 1011.92 1012.28 1012.41 1012.47 1012.62 1013.06 1013.16 1013.12 1012.96 1012.71 1012.52 1012.27 1012.03 1012.08 1012.01 1011.77 1011.74 1011.46 1011.31
998.12 999.30 1000.34 1001.24 1002.07 1003.30 1004.75 1005.67 1005.83 1006.38 1006.56 1006.80 1007.18 1007.46 1007.96 1008.34 1008.62 1009.11 1009.55 1009.91 1010.15 1010.55 1010.93 1011.04 1011.74 1011.87 1011.90 1011.92 1011.96 1012.10 1012.49 1012.53 1012.56 1012.34 1012.13 1012.12 1012.15 1012.12 1011.98 1011.70 1011.61 1011.49 1011.17
998.97 999.89 1000.80 1001.85 1003.01 1003.66 1004.82 1006.04 1006.64 1007.07 1007.22 1007.06 1007.22 1007.16 1008.15 1007.98 1008.57 1009.06 1009.61 1009.95 1010.05 1010.28 1010.51 1010.43 1010.93 1011.00 1010.83 1010.76 1010.90 1011.26 1011.70 1011.94 1011.97 1011.97 1011.87 1012.06 1012.11 1011.99 1011.83 1011.62 1011.39 1011.14 1010.86
999.43 1000.12 1001.05 1002.17 1002.61 1003.44 1004.26 1005.27 1006.31 1007.91 1007.90 1007.97 1007.81 1007.88 1008.16 1008.93 1009.31 1009.46 1009.79 1009.96 1010.04 1010.14 1010.14 1010.00 1010.01 1009.93 1010.11 1010.21 1010.38 1010.64 1011.02 1011.27 1011.51 1011.36 1011.65 1011.77 1011.85 1011.73 1011.54 1011.36 1011.14 1010.78 1010.45
999.13 999.86 1000.65 1001.47 1002.46 1002.38 1003.07 1003.77 1004.84 1006.11 1007.07 1008.06 1008.73 1008.86 1009.15 1009.52 1009.75 1009.87 1009.81 1009.84 1010.20 1010.23 1009.88 1009.62 1009.51 1009.50 1009.75 1009.95 1010.16 1010.44 1010.71 1010.92 1011.20 1011.50 1011.76 1011.80 1011.70 1011.44 1011.33 1011.16 1010.83 1010.51 1010.12
998.98 999.38 999.49 1000.05 1001.76 1002.16 1002.04 1002.65 1003.34 1004.21 1005.46 1007.16 1008.56 1009.18 1009.53 1009.61 1009.84 1009.91 1009.95 1009.84 1009.45 1009.10 1009.12 1009.10 1008.99 1009.38 1009.77 1010.13 1010.28 1010.56 1010.92 1011.27 1011.57 1011.78 1011.85 1011.70 1011.40 1011.31 1011.15 1010.91 1010.54 1010.10 1009.65
999.60 999.98 999.02 1000.20 1001.23 1001.65 1001.64 1001.83 1002.37 1003.13 1004.93 1006.20 1007.29 1007.86 1008.51 1008.90 1009.40 1009.64 1009.59 1009.47 1009.18 1008.78 1008.64 1008.82 1009.18 1009.63 1010.09 1010.40 1010.68 1010.88 1011.10 1011.21 1011.27 1011.31 1011.43 1011.32 1011.27 1011.14 1011.05 1010.70 1010.32 1009.93 1009.31
998.73 1000.47 1000.05 1000.60 1001.32 1001.31 1001.41 1001.70 1002.08 1002.62 1003.83 1005.09 1005.99 1006.70 1006.91 1007.61 1008.08 1008.59 1008.56 1008.61 1008.49 1008.52 1008.58 1008.98 1009.57 1009.95 1010.23 1010.55 1010.76 1011.01 1011.12 1011.05 1010.94 1010.95 1011.13 1011.28 1011.22 1011.14 1010.87 1010.55 1010.19 1009.61 1009.03
999.85 1000.32 1000.31 1000.36 1000.65 1001.06 1001.21 1001.67 1001.92 1002.29 1003.53 1004.34 1005.00 1006.35 1006.91 1007.60 1007.19 1007.48 1007.77 1008.04 1008.07 1008.29 1008.72 1009.18 1009.61 1009.99 1009.96 1010.31 1010.75 1010.94 1011.01 1010.92 1010.77 1010.94 1011.27 1011.42 1011.29 1011.01 1010.74 1010.61 1010.05 1009.49 1008.98
999.90 999.96 1000.14 1000.55 1000.88 1001.11 1001.46 1001.97 1002.14 1002.99 1004.00 1004.05 1004.97 1006.16 1007.06 1006.82 1006.61 1006.97 1007.38 1007.73 1007.97 1008.27 1008.60 1009.13 1009.68 1009.91 1009.95 1010.23 1010.72 1010.98 1010.95 1010.85 1010.99 1011.26 1011.64 1011.66 1011.43 1011.07 1010.90 1010.50 1010.01 1009.53 1009.12
1000.60 1000.29 1000.71 1001.09 1001.59 1001.69 1002.03 1002.43 1002.86 1003.27 1003.41 1004.18 1005.01 1005.83 1006.33 1006.13 1006.33 1006.64 1007.07 1007.51 1007.82 1008.21 1008.42 1008.94 1009.42 1009.69 1010.10 1010.40 1010.59 1010.72 1010.99 1011.25 1011.47 1011.92 1012.28 1012.19 1011.74 1011.19 1010.93 1010.49 1009.95 1009.61 1009.13
1000.90 1001.13 1001.26 1000.95 1001.75 1002.53 1003.20 1002.74 1003.52 1002.78 1002.91 1003.54 1004.39 1004.70 1005.58 1005.90 1006.03 1006.55 1006.91 1007.42 1007.70 1007.96 1008.20 1008.51 1008.98 1009.30 1009.78 1010.39 1010.90 1011.59 1012.10 1012.11 1012.43 1012.64 1012.45 1012.30 1011.94 1011.33 1010.80 1010.52 1010.15 1009.69 1009.16
1001.30 1001.30 1001.63 1001.90 1002.37 1002.62 1002.47 1002.51 1002.12 1002.63 1002.67 1003.52 1004.02 1004.49 1005.11 1005.32 1005.67 1006.26 1006.67 1007.00 1007.29 1007.55 1007.78 1007.94 1008.43 1008.90 1009.35 1009.92 1010.77 1011.75 1012.26 1012.42 1012.59 1012.84 1012.84 1012.52 1011.90 1011.18 1010.91 1010.75 1010.15 1009.80 1009.37
Wind_Speed
19 18 17 16 16 15 11 11 12 8 9 10 12 12 11 12 11 10 10 9 9 7 7 4 4 3 3 4 2 1 2 1 1 4 1 2 2 4 5 5 5 6 6
19 18 18 17 17 16 16 12 12 12 9 9 12 13 13 13 12 13 10 8 9 10 9 8 6 6 7 5 3 5 3 4 2 4 2 4 5 3 6 6 6 7 5
19 20 19 18 18 18 17 17 13 13 12 13 13 14 14 14 13 12 11 10 6 9 8 7 7 7 6 4 4 2 2 2 2 3 4 3 4 3 4 4 6 4 4
21 20 20 20 20 18 16 17 16 15 15 14 15 15 15 15 14 14 11 10 7 6 6 8 7 7 7 6 5 5 4 4 5 5 6 5 4 5 0 2 4 3 4
20 21 21 19 18 16 17 16 16 15 15 15 14 13 13 13 11 13 11 11 9 7 7 8 7 7 8 8 5 6 5 5 5 6 5 5 4 3 3 4 4 4 4
19 21 19 18 17 17 15 15 15 15 15 15 14 15 16 11 9 12 11 9 9 10 7 5 5 6 9 13 7 6 3 2 5 3 6 7 5 4 4 4 5 6 7
16 18 18 17 18 18 16 15 15 15 14 14 14 12 12 11 5 8 10 8 8 7 6 5 1 5 4 3 5 6 4 8 12 7 10 8 6 5 4 5 5 5 8
16 16 17 16 16 16 16 15 14 13 14 12 11 11 10 8 10 9 9 9 6 6 5 5 9 8 6 3 1 4 8 8 6 6 11 12 8 6 5 4 6 7 7
17 15 16 14 16 16 15 14 12 11 10 10 9 10 9 7 9 12 9 7 7 7 6 6 5 5 8 9 8 9 8 6 7 11 15 9 7 9 9 3 8 7 9
17 15 12 12 14 14 13 12 9 9 9 7 7 9 10 9 11 16 12 7 9 6 5 6 10 9 10 11 7 6 6 7 5 7 2 4 7 9 14 10 10 9 9
13 11 10 10 10 10 11 9 9 9 7 7 7 6 8 9 10 17 17 10 8 6 4 5 5 12 10 9 9 6 3 3 5 5 5 5 7 7 8 9 8 6 7
9 11 10 10 8 8 11 8 10 8 9 8 7 6 6 9 13 13 16 15 7 6 4 6 7 10 10 8 5 5 5 1 4 5 6 7 5 5 3 3 4 5 6
12 11 10 10 7 9 10 10 7 7 6 6 6 6 6 5 5 10 11 7 4 1 3 4 7 8 10 7 10 9 6 3 5 6 6 4 3 4 4 5 6 6 6
13 13 12 12 12 9 7 6 7 6 6 6 6 6 6 5 5 6 5 5 5 6 5 4 7 8 10 7 5 6 5 6 6 4 4 4 3 3 4 3 4 4 5
14 12 11 9 10 9 8 3 5 3 3 7 6 4 4 5 7 8 8 7 5 7 7 5 4 6 7 6 6 6 6 5 5 4 3 2 3 4 3 3 3 5 7
12 10 9 9 7 8 8 6 15 11 7 9 4 5 5 9 12 12 11 11 11 10 3 4 6 7 7 7 6 5 6 7 4 2 2 2 4 3 4 4 4 4 5
11 12 10 9 9 8 9 8 8 6 10 12 11 12 8 11 10 12 11 10 7 3 2 3 4 5 3 3 3 4 5 5 6 2 2 3 3 4 4 3 5 4 5
12 16 11 10 9 9 10 10 9 8 7 6 10 8 9 10 8 8 9 7 2 3 4 5 4 1 2 2 3 3 4 4 4 4 4 4 5 3 3 5 5 5 5
6 3 8 11 8 9 8 9 9 10 9 8 7 5 7 9 8 7 3 3 4 4 5 3 3 3 4 4 4 3 4 3 2 2 3 5 3 3 4 5 5 8 8
5 2 7 7 5 6 6 6 5 6 11 9 8 9 8 7 5 5 4 4 5 5 4 4 4 4 4 3 3 3 2 2 3 3 3 2 3 3 5 5 6 7 6
6 2 7 4 6 6 7 5 5 7 10 9 9 10 13 9 8 7 7 6 5 2 3 4 4 3 2 2 1 1 3 3 3 1 2 3 4 4 5 4 7 7 6
7 7 5 6 8 5 5 4 3 4 9 6 6 9 17 7 7 6 6 4 4 3 4 4 3 4 0 3 4 3 3 4 2 3 4 4 4 5 4 6 7 7 5
2 7 4 3 7 7 1 4 3 5 6 7 9 10 9 6 4 6 6 5 4 5 5 4 1 2 1 4 2 1 4 3 5 5 3 4 5 4 4 6 7 5 7
4 7 10 6 6 1 2 4 6 1 10 8 9 9 9 5 2 6 5 5 4 4 5 4 3 1 5 3 1 2 5 6 5 7 6 5 7 6 5 7 5 7 7
7 9 5 7 6 4 5 5 9 5 5 8 7 7 6 4 4 5 6 6 5 4 5 5 4 4 5 3 4 9 7 11 8 2 3 6 8 11 5 5 6 7 7
4 4 5 4 3 4 6 6 2 6 4 7 7 7 6 7 5 6 6 7 7 6 6 6 8 8 6 6 11 13 7 8 6 5 3 5 8 7 4 6 8 7 6
Wind_Direction
189 191 195 197 198 203 216 197 189 198 184 165 171 168 177 185 184 185 210 206 181 164 171 223 256 219 255 279 350 303 260 343 8 301 318 282 281 245 256 258 251 236 240
188 192 196 195 199 201 206 215 195 189 179 173 173 177 183 191 185 194 210 205 193 180 178 184 199 217 220 233 262 271 267 286 251 264 280 274 246 242 241 248 247 249 247
190 193 194 200 199 204 201 204 200 191 193 186 179 187 188 193 188 199 205 220 210 186 172 173 196 221 229 220 219 274 281 277 282 253 256 259 243 240 278 270 264 247 263
189 195 198 198 202 203 201 199 204 196 195 190 195 195 193 192 193 198 200 217 216 211 169 169 195 212 223 205 221 231 236 267 285 290 273 263 246 264 329 277 307 267 271
191 195 200 202 201 202 203 201 201 200 197 201 198 198 199 198 198 199 199 210 207 213 201 188 193 219 226 213 198 227 228 255 253 271 308 305 300 337 308 285 267 287 282
193 196 197 197 198 202 201 203 195 204 199 198 196 199 198 199 216 188 201 212 209 215 214 216 193 214 239 243 224 346 358 298 287 279 272 274 279 296 308 301 321 305 294
192 192 196 193 194 197 197 195 203 202 197 193 199 197 200 200 191 188 197 222 218 221 198 186 275 244 246 207 205 252 249 222 212 231 264 259 265 273 293 289 285 301 286
191 188 191 191 190 189 193 199 198 195 194 198 193 191 197 203 171 183 201 222 240 203 196 153 236 253 272 260 277 222 226 240 224 235 234 245 240 248 237 228 253 261 266
189 192 189 184 182 182 190 193 193 195 191 179 182 187 194 198 178 193 192 216 230 236 208 216 221 226 238 207 217 241 251 261 250 245 233 240 228 236 238 267 267 271 272
197 189 182 171 166 178 177 181 184 165 170 172 175 182 179 194 182 192 192 207 220 216 223 220 214 218 222 208 213 239 236 253 271 282 284 256 251 260 257 242 255 257 267
190 165 166 163 167 165 160 149 141 153 160 163 167 171 185 199 208 192 196 209 222 199 203 214 212 214 220 202 205 220 227 358 315 297 280 278 271 263 259 258 243 236 265
156 154 155 149 155 147 135 136 129 138 144 164 171 183 199 210 216 190 195 208 203 219 217 223 217 186 190 173 200 245 143 288 272 273 271 271 276 281 330 359 266 256 263
138 136 138 135 96 105 119 124 127 137 140 151 164 188 212 201 156 172 178 181 230 318 346 79 114 139 157 179 221 190 181 224 251 262 272 275 301 300 317 298 281 273 263
126 112 104 110 107 103 96 130 135 150 160 175 188 191 203 177 163 163 158 172 183 191 153 150 163 177 187 209 189 201 217 229 245 245 274 278 280 329 316 304 312 312 309
106 110 107 105 100 88 68 46 138 68 183 171 178 174 175 185 180 171 174 174 174 196 189 183 187 207 210 210 215 200 204 222 239 243 254 308 336 308 308 311 310 300 286
117 119 119 114 128 125 126 101 42 52 51 68 55 188 88 94 126 122 117 132 142 153 192 224 191 232 228 215 211 182 193 212 242 275 37 338 285 295 289 293 280 277 293
139 135 131 141 141 147 143 146 131 64 61 52 48 56 78 131 130 133 132 113 91 120 244 274 268 265 115 131 157 163 185 171 189 159 237 259 300 288 295 299 287 291 289
158 152 154 149 170 163 161 162 154 157 161 129 44 75 86 119 131 141 143 124 141 211 247 247 253 36 48 32 41 35 28 31 30 28 17 341 294 286 309 294 292 297 290
111 151 152 147 175 169 157 163 169 165 156 126 134 122 109 103 99 93 84 259 253 237 198 255 80 48 48 23 47 50 62 23 36 347 284 265 291 327 309 297 306 298 293
90 49 103 114 132 155 151 189 158 138 135 146 174 160 150 142 163 179 198 215 248 274 34 64 52 68 53 38 25 28 351 266 265 225 236 348 306 319 303 306 306 300 296
111 99 36 168 164 176 164 187 181 165 159 168 175 161 165 173 174 189 187 203 220 269 107 91 61 60 58 151 168 299 288 277 265 350 14 342 343 302 290 321 303 306 314
154 168 191 230 165 175 154 193 171 136 169 180 159 148 157 203 204 181 168 185 166 142 83 94 66 335 71 72 51 3 330 284 283 59 36 344 319 308 351 312 306 314 333
317 164 181 114 87 81 94 164 112 66 90 122 130 145 173 211 212 151 152 145 129 127 133 118 91 253 277 112 95 312 288 324 58 57 11 332 309 327 322 306 310 333 324
327 100 104 91 62 111 138 50 84 170 142 146 146 165 189 193 211 148 136 136 134 139 118 134 147 346 66 60 346 209 29 47 49 51 18 324 309 323 321 299 329 326 309
45 60 40 102 118 145 210 184 222 165 152 137 166 169 175 175 144 154 142 141 140 154 170 170 153 184 158 147 95 89 74 60 64 8 322 329 304 301 318 340 332 315 326
99 105 113 93 68 329 277 232 245 165 158 165 179 160 190 194 160 167 167 171 177 186 212 171 170 182 149 159 116 130 125 107 95 60 338 293 287 300 27 314 319 316 346